Montana Department of Transportation

Main Content

Accidents and Incidents Report

Hourly Weather Roundup

ASUS45 KTFX 231610
RWRMT 
MONTANA REGIONAL WEATHER ROUNDUP
NATIONAL WEATHER SERVICE GREAT FALLS MT
1000 AM MDT SUN JUL 23 2017

NOTE: "FAIR" INDICATES FEW OR NO CLOUDS BELOW 12000 FEET WITH NO
SIGNIFICANT WEATHER AND/OR OBSTRUCTIONS TO VISIBILITY.

MTZ001.007-043-231700-
WEST OF THE DIVIDE
  
CITY           SKY/WX    TMP DP  RH WIND       PRES   REMARKS
KALISPELL      SUNNY     73  50  44 E6        30.04F                  
MISSOULA       SUNNY     69  46  43 SE5       30.08F                  
BUTTE          SUNNY     69  42  37 CALM      30.19F                  
MULLAN PASS    SUNNY     66  42  41 CALM      30.21F                  
ANACONDA         N/A     73  43  33 CALM      30.15F                  
DEER LODGE       N/A     70  46  43 CALM      30.17F                  
EUREKA           N/A     81  48  32 MISG      29.99F                  
HAMILTON         N/A     72  46  40 CALM      30.10F                  
LIBBY            N/A     72  48  43 N3        30.01F                  
--------------------------------

MTZ008-052.055-231700-
SOUTHWEST MONTANA
  
CITY           SKY/WX    TMP DP  RH WIND       PRES   REMARKS
BOZEMAN        SUNNY     73  46  38 N3        30.14F                  
DILLON         SUNNY     68  46  45 SW6       30.17F                  
W YELLOWSTONE  CLOUDY    63  37  39 CALM      30.31F                  
ENNIS          SUNNY     68  34  28 CALM      30.23F                  
THREE FORKS      N/A     70  43  37 CALM      30.11F                  
--------------------------------

MTZ009-010-012-014-046-048-049-054-231700-
EAST SLOPES AND CENTRAL MONTANA
  
CITY           SKY/WX    TMP DP  RH WIND       PRES   REMARKS
CUT BANK       SUNNY     80  43  26 W9        30.03F                  
GREAT FALLS    SUNNY     81  40  23 S5        30.04F                  
MALMSTROM AFB  SUNNY     78  44  29 NW3       30.04F                  
HELENA         SUNNY     73  46  38 VRB3      30.08F                  
CHOTEAU          N/A     81  45  28 VRB3      30.06F                  
--------------------------------

MTZ011-013-016-021-045-047-050-051-231700-
NORTH CENTRAL MONTANA
  
CITY           SKY/WX    TMP DP  RH WIND       PRES   REMARKS
HAVRE          SUNNY     82  44  26 W10       29.98F                  
LEWISTOWN      SUNNY     79  38  22 VRB5      30.08F                  
N BAR RANCH      N/A     84  30  14 S8        30.12F                  
CHINOOK          N/A     77  46  33 SW3       29.97F                  
--------------------------------

MTZ017.020-022.027-061-062-231700-
NORTHEAST MONTANA
  
CITY           SKY/WX    TMP DP  RH WIND       PRES   REMARKS
GLASGOW        SUNNY     77  46  33 SE12      30.00F                  
SIDNEY         SUNNY     76  53  44 S5        30.04F                  
WOLF POINT     SUNNY     82  48  30 S5        30.01F                  
MALTA          SUNNY     81  48  32 CALM      29.96F                  
PLENTYWOOD       N/A     79  52  38 SE8       30.04F                  
POPLAR           N/A     81  48  32 SE7       30.02F                  
--------------------------------

MTZ028.42-056.058-231700-
SOUTHCENTRAL AND SOUTHEAST MONTANA
  
CITY           SKY/WX    TMP DP  RH WIND       PRES   REMARKS
BAKER          SUNNY     83  42  23 SE7       30.09S                  
BILLINGS       SUNNY     71  40  32 SW9       30.08F                  
LIVINGSTON     SUNNY     74  40  29 NW3       30.13F                  
MILES CITY     SUNNY     82  43  25 SE10      30.03F                  
BIG TIMBER     SUNNY     75  41  29 VRB3      30.14F                  
FORSYTH          N/A     86  39  19 CALM      30.02F                  
LAUREL           N/A     73  38  28 S2        30.07                   
--------------------------------

REGIONAL REPORTS...DAKOTAS
  
CITY           SKY/WX    TMP DP  RH WIND       PRES   REMARKS
WILLISTON      SUNNY     78  55  44 VRB5      30.05F                  
MINOT          SUNNY     73  53  49 CALM      30.06F                  
DICKINSON      SUNNY     77  52  41 S630.07F                  
BEACH            N/A     77  48  36 SE8       30.11F                  
CROSBY           N/A     75  55  50 S8        30.05F                  
TIOGA            N/A     75  54  46 SW7       30.08F                  
WATFORD CITY     N/A     77  50  38 VRB5      30.05F                  
BISMARCK       SUNNY     73  57  57 VRB5      30.09S                  
GRAND FORKS    PTSUNNY   70  62  76 N7        30.01S                  
FARGO          CLOUDY    66  60  81 N12       30.01R                  
BUFFALO SD       N/A     80  50  34 S9        30.04F                  
RAPID CITY     SUNNY     79  47  32 SE7       30.12F                  
--------------------------------

REGIONAL REPORTS...WYOMING/IDAHO/WASHINGTON
  
CITY           SKY/WX    TMP DP  RH WIND       PRES   REMARKS
GILLETTE       SUNNY     82  42  24 S14       30.13F                  
SHERIDAN       SUNNY     74  39  28 CALM      30.12S                  
BUFFALO WY     SUNNY     80  33  18 CALM      30.17F                  
CODY           SUNNY     77  39  25 CALM      30.18F                  
YELLOWSTONE LA   N/A     60  48  64 E5        30.40F                  
IDAHO FALLS    PTSUNNY   64  54  69 CALM      30.19R                  
BOISE          SUNNY     77  43  29 CALM      30.03S                  
SPOKANE        MOSUNNY   77  50  38 S6        30.01S                  
--------------------------------

REGIONAL REPORTS...ALBERTA
  
CITY           SKY/WX    TMP DP  RH WIND       PRES   REMARKS
EDMONTON       MOSUNNY   63  55  77 N9        29.94F                  
CALGARY        MOSUNNY   73  52  46 NE3       29.94F                  
LETHBRIDGE     MOSUNNY   81  52  36 W9        29.96F                  
MEDICINE HAT   MOSUNNY   77  55  47 SW8       29.93F                  
WATERTON GATE    N/A     75  50  41 SW13        N/A                   
MILK RIVER       N/A     81  50  34 S5          N/A                   
ONEFOUR          N/A     81  45  28 NW9         N/A                   
--------------------------------

REGIONAL REPORTS...SASKATCHEWAN
  
CITY           SKY/WX    TMP DP  RH WIND       PRES   REMARKS
SWIFT CURRENT  MOSUNNY   77  54  44 S13       29.94F                  
REGINA         PTSUNNY   77  57  50 S10       29.99F                  
SASKATOON      PTSUNNY   72  59  64 SW8       29.92F                  
CYPRESS HILLS    N/A     79  45  29 W6          N/A                   
VAL MARIE        N/A     79  45  29 S12         N/A                   
ROCKGLEN         N/A     77  46  33 S15G21      N/A                   
ASSINIBOIA       N/A     70  57  64 N10         N/A                   
--------------------------------